Temperature
16 16 16 16 16 16 16 16 16 16 16 16 16 16 15 15 15 15 15 15 15 15 15 15 15 15 15 15 15 15 15 15 15 15 15 15 15 15 15 15 15 14 14
16 16 16 16 16 16 16 16 16 16 16 16 15 15 15 15 15 15 15 15 15 15 15 15 15 15 15 15 15 15 15 15 15 15 15 15 14 14 14 14 14 14 14
16 16 16 16 16 15 15 15 15 15 15 15 15 15 15 15 15 15 15 15 15 15 15 15 15 15 15 14 14 14 14 14 14 14 14 14 14 14 14 14 14 14 14
16 16 16 16 15 15 15 15 15 15 15 15 15 15 15 15 15 14 15 14 14 14 14 14 14 14 14 14 14 14 14 14 14 14 14 14 14 14 14 14 13 13 13
16 16 15 15 15 15 15 15 15 15 15 15 15 15 15 15 15 14 14 14 14 14 14 14 14 14 14 14 14 14 14 14 14 14 14 14 14 13 13 13 13 13 13
16 15 15 15 15 15 15 15 15 15 15 15 15 15 15 15 14 14 14 14 14 14 14 14 14 14 14 14 14 14 14 14 14 14 14 13 13 13 13 13 13 13 13
15 15 15 15 15 15 15 15 15 14 14 15 15 14 14 14 14 14 14 14 14 14 14 13 14 13 13 13 14 14 14 13 13 13 13 13 13 13 13 13 12 12 12
15 15 15 15 14 14 14 14 14 14 14 14 14 14 14 14 14 14 14 14 14 14 13 13 13 13 13 13 13 13 13 13 13 13 13 13 13 13 13 12 12 12 12
15 15 14 14 14 14 14 14 14 14 14 14 14 14 14 14 14 14 14 14 14 14 13 13 13 13 13 13 13 13 13 13 13 13 13 13 13 13 12 12 12 12 12
14 14 14 14 14 14 14 14 14 14 14 14 14 15 15 14 14 14 14 14 13 13 13 13 13 13 13 13 13 13 13 13 13 13 13 12 12 12 12 12 12 12 12
14 14 14 14 14 14 14 14 14 14 14 14 14 14 14 14 14 14 13 13 13 13 13 13 13 13 13 13 13 13 13 13 13 13 12 12 12 12 12 12 12 12 12
14 14 14 14 14 14 14 14 14 14 14 14 14 14 14 14 14 14 13 13 13 13 13 13 13 13 13 13 13 13 13 13 12 12 12 12 12 12 12 12 12 12 12
14 14 14 14 14 14 14 14 14 14 14 14 14 14 14 14 14 14 14 13 13 13 13 12 12 12 12 13 13 13 13 12 12 12 12 12 12 12 12 12 11 11 11
14 14 14 14 14 14 14 14 14 14 14 14 14 14 14 14 14 14 14 14 13 13 12 12 12 12 12 12 12 12 12 12 12 12 12 12 12 12 12 12 11 11 11
14 14 14 14 14 14 14 14 14 14 14 14 14 14 14 14 14 14 14 14 13 13 12 12 12 12 12 12 12 12 12 12 12 12 12 12 12 12 12 11 11 11 11
14 14 14 14 14 14 14 14 14 14 14 14 14 14 14 14 14 13 13 13 13 13 12 12 12 12 12 12 12 12 12 12 12 12 12 12 12 12 11 11 11 11 11
14 14 14 14 14 14 14 14 14 14 14 14 14 14 14 14 13 13 13 13 13 13 13 12 12 12 12 12 12 12 12 12 12 12 12 12 11 11 11 11 11 11 11
14 14 14 14 14 14 13 13 13 14 14 13 13 13 13 13 13 13 13 13 13 13 13 12 12 12 11 11 11 11 11 11 12 11 11 11 11 11 11 11 11 11 11
13 13 14 14 13 13 13 13 13 13 13 13 13 13 13 13 13 13 13 13 13 13 12 12 12 12 11 11 11 11 11 11 11 11 11 11 11 11 11 11 11 11 10
13 13 13 13 13 13 13 13 13 13 13 13 13 13 13 13 13 13 13 13 13 12 12 12 12 12 11 11 11 11 11 11 11 11 11 11 11 11 11 11 11 10 10
13 13 13 13 13 13 13 13 13 13 13 13 13 13 13 13 13 13 13 13 12 12 12 12 11 11 11 11 11 11 11 11 10 10 11 11 11 11 11 11 11 10 10
12 12 12 12 12 12 12 12 12 12 12 12 13 13 13 13 13 13 13 12 12 12 12 12 11 11 11 11 11 11 11 10 10 10 10 10 10 11 11 11 10 10 10
12 12 12 12 12 12 12 12 12 12 12 12 12 12 12 12 12 12 12 12 12 12 12 12 11 11 11 11 11 11 11 11 11 11 10 10 10 10 10 10 10 10 10
12 11 11 11 11 11 11 11 11 11 11 11 11 12 12 12 12 12 12 12 12 12 11 11 11 11 11 11 11 11 11 11 10 10 10 10 10 10 10 10 10 10 10
11 11 11 11 11 11 11 11 11 11 11 11 11 11 11 11 11 11 11 11 11 11 11 11 11 11 11 11 11 11 10 10 10 10 10 10 10 10 10 10 10 10 10
10 10 10 10 11 11 11 11 11 11 10 10 10 10 10 11 11 11 11 11 11 11 11 11 11 11 11 11 11 10 10 10 10 10 10 10 10 9 9 9 10 10 10
Wind_Speed
2 3 3 3 3 3 3 3 3 5 5 6 8 8 7 9 10 10 10 13 13 13 13 13 13 13 13 13 13 14 14 14 14 14 14 14 14 14 14 14 14 13 12
3 3 3 3 3 3 4 4 4 4 4 5 6 7 7 8 9 10 10 12 14 14 14 14 14 13 13 13 14 14 14 14 14 14 14 13 13 13 14 14 14 13 12
5 4 3 2 3 4 5 5 5 4 3 4 5 5 6 7 7 8 10 10 11 14 14 14 14 13 13 13 13 14 14 13 13 14 13 13 13 13 13 14 14 13 12
6 5 3 2 4 5 4 3 3 3 4 4 4 4 4 5 6 7 7 10 10 11 12 14 14 13 13 12 12 13 13 13 13 13 13 13 13 13 13 14 13 12 12
6 5 3 3 4 4 3 3 3 3 3 3 4 3 3 3 3 5 5 8 10 11 11 13 13 13 13 12 12 12 12 13 13 13 13 13 13 13 13 13 13 12 12
6 5 3 4 4 3 3 3 3 3 2 2 3 4 3 3 3 4 4 6 8 10 10 10 10 11 12 13 13 13 13 13 13 12 12 12 12 12 13 13 13 13 13
5 5 3 3 3 3 3 3 2 2 1 2 3 2 2 3 3 3 3 3 5 8 9 9 9 9 10 12 13 13 13 12 12 12 11 12 12 12 12 13 13 13 13
4 4 3 3 3 2 3 3 2 1 1 0 1 1 1 3 3 3 2 3 4 5 6 8 9 9 10 10 12 13 13 12 12 11 10 11 12 12 12 12 13 13 13
3 3 4 3 2 2 2 2 1 1 1 1 0 1 2 1 1 2 2 3 3 3 4 6 8 10 11 11 11 12 12 12 11 10 10 11 11 11 11 12 12 12 12
3 2 3 3 2 2 2 1 1 1 1 0 1 1 1 3 2 1 1 2 3 4 3 4 7 10 11 11 11 12 12 12 11 11 11 11 11 11 11 11 11 11 12
2 2 2 2 1 1 1 1 1 0 0 1 0 0 1 1 1 3 1 1 2 2 2 3 5 8 10 10 11 12 12 11 11 11 11 10 10 10 10 10 10 11 11
1 2 2 1 2 2 1 1 1 1 0 0 0 1 1 1 1 2 2 2 2 1 2 2 5 6 9 10 10 11 11 11 10 10 10 10 9 9 9 9 10 10 10
1 2 1 1 1 1 1 1 1 1 1 1 1 1 1 1 1 1 3 2 2 1 1 2 3 6 8 10 10 11 10 10 9 9 9 9 9 8 9 9 9 9 9
2 2 2 1 1 0 1 2 1 1 1 1 1 1 1 1 1 2 2 3 2 1 1 2 2 4 8 10 10 10 9 10 10 9 9 9 9 9 9 9 8 8 8
2 3 3 3 2 1 1 2 1 1 1 1 1 2 1 1 1 1 2 3 3 2 1 2 2 3 8 10 10 9 9 8 8 8 9 9 10 9 9 9 8 8 8
2 3 2 3 3 3 2 2 1 1 1 1 1 1 1 1 1 2 2 2 2 3 2 2 2 3 6 8 8 9 9 9 7 7 8 8 8 9 9 9 9 8 8
2 2 3 2 3 3 2 2 2 2 2 2 2 2 2 2 2 2 2 2 2 3 3 2 2 4 5 5 7 9 9 8 7 6 6 7 7 7 7 7 7 7 7
1 1 1 1 1 2 2 3 3 3 3 3 3 3 2 2 3 2 2 2 2 3 4 4 3 3 4 6 6 6 8 7 8 7 6 6 5 5 5 5 5 5 6
1 1 1 1 1 1 1 2 3 3 3 4 3 3 3 2 3 3 3 3 2 2 3 4 4 3 3 4 4 4 5 6 7 7 7 6 5 5 4 3 3 4 4
1 1 1 1 1 1 1 1 1 2 3 3 3 3 3 3 3 3 4 4 3 3 3 4 4 3 3 3 4 3 3 2 3 6 7 7 6 5 4 3 3 3 3
1 1 1 0 0 0 1 1 1 2 2 2 2 2 2 3 3 2 2 3 4 4 3 3 4 3 3 4 4 4 4 3 2 4 3 5 7 6 6 6 5 5 5
1 1 1 1 1 1 1 1 1 2 2 2 2 2 1 2 3 2 3 3 4 5 5 4 4 5 5 5 4 4 3 3 2 3 4 4 6 4 8 9 8 8 8
1 0 1 0 0 1 1 1 2 2 2 2 2 1 2 1 3 2 3 3 4 5 5 5 5 6 6 6 6 5 5 5 4 4 4 3 4 4 8 10 11 11 10
1 1 1 1 1 2 2 2 3 2 2 2 2 2 2 1 1 2 2 2 4 5 6 5 4 5 5 6 8 8 6 4 2 3 4 3 3 4 5 9 11 12 12
2 2 1 2 2 3 3 3 3 2 2 3 3 2 2 2 2 3 2 2 2 3 5 5 5 4 4 5 7 4 4 4 2 3 3 3 3 2 3 3 9 12 13
2 2 2 2 2 2 3 3 4 2 3 2 3 3 3 3 2 3 3 3 3 3 3 3 3 2 3 4 6 6 6 5 3 3 4 4 2 2 1 2 5 9 11
Wind_Direction
104 101 98 92 86 81 60 52 49 54 44 45 57 63 67 76 87 87 78 71 74 76 78 79 79 78 77 78 80 79 76 74 73 73 73 71 70 70 70 71 72 74 73
97 89 86 78 71 79 73 68 61 59 58 56 54 57 62 72 89 98 94 80 73 74 76 77 77 76 78 82 82 81 79 77 75 74 74 73 72 73 72 71 70 70 69
92 88 90 86 73 76 73 60 56 48 64 72 64 56 58 59 75 93 100 99 87 75 75 75 74 74 80 83 84 81 81 79 76 75 74 74 73 73 72 71 70 69 68
84 86 82 83 82 84 80 71 56 52 56 64 67 57 61 52 59 81 93 102 101 93 84 82 79 76 82 84 84 83 84 81 78 76 74 73 73 72 71 70 69 68 68
82 92 86 88 81 77 77 80 68 66 70 73 80 66 61 55 50 67 76 92 102 104 100 88 83 79 79 82 83 82 82 81 79 78 76 73 73 72 72 71 69 68 68
66 83 91 86 85 80 74 71 72 61 66 65 77 75 70 69 57 52 55 75 94 103 105 104 95 82 78 78 80 81 81 78 77 77 76 75 74 74 72 71 70 68 65
59 71 75 72 81 92 104 99 91 83 69 84 81 66 50 59 70 72 58 63 81 92 99 100 99 95 88 76 74 77 78 78 78 77 76 74 74 73 71 71 69 67 64
65 82 80 78 79 80 79 78 87 96 64 88 117 112 74 36 27 58 69 74 78 80 88 95 95 92 92 87 77 76 74 73 74 76 77 75 74 72 71 70 68 67 65
67 66 92 99 96 91 92 104 116 122 152 296 52 120 134 148 63 23 54 78 82 80 78 88 93 94 92 89 82 76 74 70 69 73 77 76 74 71 72 72 70 67 66
98 80 87 100 113 125 128 163 154 177 146 215 318 347 102 131 137 107 13 53 77 78 75 75 83 90 95 92 89 83 78 72 71 73 76 74 73 74 72 72 71 69 68
112 103 97 113 139 134 162 169 117 108 125 199 190 61 49 57 118 135 140 73 58 64 82 82 90 95 98 99 96 88 83 77 73 71 71 71 69 71 73 73 73 70 68
136 134 140 155 179 168 174 155 137 114 51 277 113 124 138 139 150 140 153 151 116 79 75 82 97 103 105 103 104 98 89 81 78 73 70 68 68 70 73 73 71 69 68
165 181 163 176 203 158 154 138 131 169 189 214 180 188 187 192 169 141 142 141 128 127 84 78 99 113 117 113 109 104 95 87 82 78 75 70 69 71 73 73 69 68 68
188 184 163 172 156 176 176 131 184 203 194 205 198 185 181 225 179 168 147 134 130 129 109 130 97 115 120 121 119 114 105 94 87 84 80 76 72 72 73 71 67 68 69
190 167 166 174 171 213 200 149 186 214 178 199 209 212 202 212 200 178 146 144 148 153 172 159 133 135 126 126 133 127 120 110 99 91 86 83 79 78 76 71 68 68 69
181 160 189 189 183 200 186 156 182 192 215 227 206 214 223 209 185 162 169 178 160 155 160 161 152 153 140 137 144 137 137 128 115 106 97 95 90 86 80 74 71 71 71
189 186 210 213 193 202 182 167 195 198 220 237 220 199 217 200 171 185 193 184 170 145 150 151 132 146 140 142 143 147 144 141 138 133 119 111 104 97 89 83 78 74 71
213 192 198 221 200 203 196 194 206 209 221 231 222 212 214 204 190 188 183 185 179 160 152 157 156 159 164 157 156 160 157 155 151 154 146 133 125 117 108 98 90 82 76
238 213 196 196 222 229 215 217 216 214 228 231 217 214 212 193 207 193 180 186 187 164 147 154 165 164 158 155 150 165 156 153 158 162 161 157 155 149 140 128 115 100 91
257 254 233 173 248 252 259 260 247 239 241 242 231 217 208 191 195 192 183 186 171 154 149 150 155 162 165 165 158 169 173 179 169 162 168 175 178 178 177 173 171 157 138
317 314 338 89 341 314 312 336 299 277 264 254 247 231 213 179 166 166 179 177 167 165 168 165 165 170 179 176 187 184 184 180 184 173 167 183 183 189 199 204 207 199 183
331 343 321 3 8 319 335 353 339 286 281 272 269 252 219 167 156 152 159 168 175 182 185 183 184 185 197 196 190 188 179 169 214 199 169 196 181 194 202 202 209 206 202
284 300 294 108 287 318 296 287 303 291 277 270 270 256 263 221 160 172 188 192 204 207 194 186 190 197 195 195 187 194 196 193 206 193 166 207 195 204 206 208 207 206 206
278 261 250 243 256 281 269 265 267 269 281 277 266 247 248 236 181 154 178 207 222 215 209 209 207 207 204 191 190 195 194 193 190 176 156 194 205 210 208 201 204 205 208
286 265 245 239 244 262 248 239 238 245 257 266 267 255 240 224 211 176 183 218 248 251 230 214 206 202 195 184 179 166 169 170 199 207 181 176 202 204 208 201 205 208 209
272 267 252 243 237 246 245 234 227 234 246 256 264 262 248 237 229 198 196 201 229 251 233 217 209 204 187 188 187 183 181 183 189 204 194 177 191 161 228 225 197 203 209
Height
1535 1536 1537 1537 1538 1538 1539 1539 1539 1540 1540 1541 1541 1541 1541 1540 1540 1540 1540 1540 1539 1539 1538 1538 1538 1537 1537 1537 1537 1537 1537 1538 1538 1537 1537 1537 1536 1536 1536 1536 1536 1536 1536
1536 1536 1537 1538 1538 1539 1540 1540 1540 1541 1541 1542 1542 1542 1542 1542 1542 1541 1541 1541 1541 1540 1540 1540 1539 1539 1538 1539 1539 1539 1539 1539 1539 1539 1539 1538 1538 1538 1538 1537 1537 1537 1536
1536 1537 1537 1538 1539 1540 1540 1541 1541 1542 1542 1543 1543 1544 1544 1544 1544 1544 1543 1543 1543 1542 1542 1541 1541 1541 1540 1540 1540 1541 1541 1541 1541 1541 1540 1540 1540 1539 1539 1539 1538 1538 1537
1537 1537 1538 1538 1539 1540 1541 1541 1542 1542 1543 1544 1544 1545 1545 1545 1546 1546 1545 1545 1544 1544 1544 1544 1543 1543 1542 1543 1542 1542 1543 1543 1543 1542 1542 1542 1542 1541 1541 1540 1539 1539 1538
1537 1537 1538 1539 1540 1541 1541 1542 1543 1543 1544 1544 1545 1546 1546 1547 1547 1547 1547 1547 1547 1546 1546 1546 1545 1545 1545 1545 1545 1544 1544 1544 1544 1544 1544 1544 1543 1543 1542 1541 1540 1539 1539
1537 1537 1538 1539 1540 1541 1541 1542 1543 1544 1545 1545 1546 1547 1548 1548 1548 1549 1549 1549 1549 1548 1548 1547 1547 1547 1546 1547 1546 1546 1546 1546 1546 1546 1545 1545 1545 1544 1543 1542 1542 1541 1539
1537 1537 1538 1539 1540 1541 1542 1543 1543 1544 1545 1546 1547 1547 1549 1549 1549 1550 1550 1550 1550 1550 1550 1549 1549 1548 1548 1548 1548 1548 1548 1547 1547 1547 1547 1546 1546 1545 1545 1544 1543 1542 1540
1537 1537 1538 1539 1540 1541 1542 1542 1543 1544 1545 1547 1548 1548 1549 1551 1551 1551 1551 1551 1551 1551 1551 1551 1551 1550 1549 1549 1549 1549 1549 1549 1548 1548 1548 1548 1547 1547 1546 1545 1544 1543 1541
1537 1538 1538 1539 1540 1541 1541 1542 1543 1544 1545 1546 1547 1548 1549 1550 1551 1552 1552 1552 1552 1552 1552 1552 1552 1551 1551 1550 1550 1550 1550 1550 1550 1550 1549 1549 1548 1547 1547 1546 1545 1544 1542
1537 1538 1538 1539 1540 1540 1541 1542 1543 1544 1545 1545 1546 1547 1548 1549 1550 1551 1552 1552 1552 1552 1553 1553 1553 1552 1551 1552 1551 1551 1551 1551 1551 1550 1550 1550 1549 1548 1548 1547 1546 1545 1543
1537 1537 1538 1539 1539 1540 1541 1542 1543 1543 1544 1545 1545 1546 1547 1548 1549 1550 1551 1552 1552 1552 1553 1553 1553 1553 1552 1552 1553 1552 1552 1552 1552 1551 1551 1550 1550 1549 1548 1547 1546 1545 1544
1536 1537 1538 1538 1539 1539 1540 1541 1542 1542 1543 1544 1544 1545 1546 1547 1548 1549 1549 1550 1551 1552 1553 1553 1553 1553 1553 1553 1553 1553 1553 1553 1552 1552 1551 1551 1550 1549 1548 1548 1547 1546 1545
1536 1536 1537 1538 1538 1539 1539 1540 1541 1541 1542 1542 1543 1544 1545 1546 1547 1548 1548 1549 1551 1552 1553 1553 1553 1553 1553 1553 1553 1553 1553 1553 1553 1552 1552 1551 1550 1549 1548 1548 1547 1547 1546
1535 1535 1536 1536 1537 1538 1538 1539 1540 1540 1541 1541 1542 1543 1544 1545 1546 1546 1547 1548 1549 1551 1552 1552 1553 1553 1553 1553 1553 1553 1553 1553 1553 1552 1552 1551 1550 1549 1549 1548 1548 1547 1547
1534 1534 1535 1535 1536 1536 1537 1537 1538 1539 1540 1540 1541 1542 1543 1543 1544 1545 1546 1547 1548 1549 1550 1551 1552 1552 1552 1552 1553 1553 1553 1553 1552 1552 1552 1551 1550 1550 1549 1549 1548 1548 1547
1532 1533 1533 1534 1534 1535 1535 1536 1536 1537 1538 1539 1540 1540 1541 1542 1543 1543 1544 1546 1546 1547 1548 1549 1550 1551 1551 1552 1552 1552 1552 1552 1552 1552 1551 1551 1550 1550 1550 1549 1549 1548 1547
1530 1531 1531 1532 1532 1533 1533 1534 1535 1535 1536 1537 1538 1538 1539 1540 1541 1542 1543 1544 1544 1545 1546 1547 1548 1549 1550 1551 1551 1551 1552 1552 1552 1551 1551 1551 1550 1550 1549 1549 1548 1548 1547
1528 1528 1529 1530 1530 1531 1531 1532 1533 1533 1534 1535 1536 1536 1537 1538 1539 1540 1541 1542 1542 1543 1544 1545 1546 1547 1548 1549 1550 1550 1550 1551 1551 1551 1551 1550 1550 1550 1549 1549 1548 1548 1547
1525 1526 1527 1527 1528 1528 1529 1530 1530 1531 1532 1532 1533 1534 1535 1536 1537 1537 1538 1539 1540 1541 1542 1543 1544 1545 1546 1547 1548 1549 1549 1549 1549 1550 1550 1550 1549 1549 1549 1548 1548 1547 1547
1522 1523 1524 1525 1525 1526 1526 1527 1527 1528 1529 1530 1531 1531 1532 1533 1534 1535 1536 1536 1538 1539 1540 1541 1542 1543 1544 1545 1546 1547 1547 1548 1548 1548 1548 1548 1548 1548 1548 1547 1547 1547 1546
1520 1520 1521 1522 1523 1523 1524 1524 1524 1525 1526 1527 1527 1528 1529 1530 1531 1532 1533 1534 1535 1536 1537 1538 1539 1540 1541 1542 1543 1544 1545 1545 1546 1546 1546 1547 1547 1547 1546 1546 1546 1546 1545
1517 1517 1518 1519 1519 1520 1520 1521 1521 1522 1523 1523 1524 1525 1526 1527 1528 1529 1530 1531 1532 1533 1534 1535 1536 1537 1538 1539 1541 1541 1542 1542 1543 1544 1544 1545 1545 1544 1545 1545 1545 1545 1544
1514 1514 1515 1515 1516 1516 1517 1517 1518 1518 1519 1520 1520 1521 1522 1524 1524 1525 1526 1527 1529 1530 1531 1532 1533 1533 1535 1536 1537 1538 1539 1539 1540 1541 1542 1542 1542 1542 1542 1543 1543 1543 1543
1510 1511 1511 1512 1512 1513 1513 1514 1514 1515 1515 1516 1517 1518 1519 1520 1521 1522 1523 1523 1525 1526 1527 1528 1530 1531 1532 1533 1534 1535 1536 1537 1538 1539 1539 1539 1539 1539 1540 1540 1540 1540 1540
1507 1507 1508 1508 1508 1509 1510 1510 1511 1511 1511 1512 1513 1514 1514 1515 1517 1518 1519 1519 1520 1521 1523 1524 1526 1527 1528 1529 1530 1531 1532 1533 1533 1534 1535 1536 1536 1536 1537 1537 1538 1538 1538
1503 1504 1504 1504 1504 1505 1506 1506 1507 1507 1507 1508 1509 1509 1510 1511 1512 1513 1514 1515 1515 1517 1518 1519 1520 1522 1523 1524 1526 1527 1528 1529 1529 1530 1531 1532 1533 1533 1533 1534 1534 1534 1535